Location: Niedergestelen
(46.3129°N, 7.7822°E)
Time: 05:55:33
(UTC+00:00)

Cosmos 546 - Pass Details

Date: 01 December 2020
Orbit: 494 x 514 km, 50.6° (Epoch: 18 January)

Event Time Altitude Azimuth Distance (km) Brightness Sun altitude
Rises 17:38:12 0° 238° (WSW) 2,566 9.5 -19.0°
Reaches altitude 10° 17:40:22 10° 236° (SW) 1,687 8.3 -19.4°
Maximum altitude 17:44:10 72° 152° (SSE) 524 4.5 -20.0°
Enters shadow 17:44:33 65° 106° (ESE) 548 4.5 -20.1°
